This is the latest recevied weather packets stored in our database for station/object KJ5JYX. If no packets are shown the sender has not sent any weather packets the latest 10 day(s).
| Time | Temp. | Humidity | Pressure | Rain* | Wind** | Luminosity | Snow |
|---|---|---|---|---|---|---|---|
| 1777927099 | 28.89° C | 57% | 1011.2 hPa | 0 mm | - | 578 W/m² | - |
| 1777926795 | 28.89° C | 57% | 1011.3 hPa | 0 mm | - | 608 W/m² | - |
| 1777926490 | 27.78° C | 60% | 1011.4 hPa | 0 mm | - | 648 W/m² | - |
| 1777926188 | 27.78° C | 63% | 1011.5 hPa | 0 mm | - | 345 W/m² | - |
| 1777925885 | 27.78° C | 59% | 1011.5 hPa | 0 mm | - | 363 W/m² | - |
| 1777925582 | 27.78° C | 60% | 1011.5 hPa | 0 mm | - | 394 W/m² | - |
| 1777925280 | 28.33° C | 64% | 1011.8 hPa | 0 mm | - | 381 W/m² | - |
| 1777924975 | 27.78° C | 61% | 1011.9 hPa | 0 mm | - | 366 W/m² | - |
| 1777924672 | 28.33° C | 60% | 1012 hPa | 0 mm | - | 293 W/m² | - |
| 1777924368 | 27.78° C | 61% | 1012 hPa | 0 mm | - | 617 W/m² | - |
| 1777924065 | 27.78° C | 61% | 1012.3 hPa | 0 mm | - | 670 W/m² | - |
| 1777923761 | 28.33° C | 59% | 1012.2 hPa | 0 mm | - | 461 W/m² | - |
| 1777923457 | 27.78° C | 59% | 1012.4 hPa | 0 mm | - | 564 W/m² | - |
| 1777923155 | 28.33° C | 60% | 1012.5 hPa | 0 mm | - | 614 W/m² | - |
| 1777922853 | 27.78° C | 62% | 1012.3 hPa | 0 mm | - | 585 W/m² | - |
| 1777922551 | 27.78° C | 62% | 1012.6 hPa | 0 mm | - | 590 W/m² | - |
| 1777922249 | 27.22° C | 60% | 1012.7 hPa | 0 mm | - | 668 W/m² | - |
| 1777921946 | 27.22° C | 61% | 1012.6 hPa | 0 mm | - | 565 W/m² | - |
| 1777921641 | 27.22° C | 61% | 1012.6 hPa | 0 mm | - | 483 W/m² | - |
| 1777921338 | 27.78° C | 61% | 1013.1 hPa | 0 mm | - | 464 W/m² | - |
| 1777921035 | 26.67° C | 62% | 1012.8 hPa | 0 mm | - | 762 W/m² | - |
| 1777920731 | 26.67° C | 62% | 1013.2 hPa | 0 mm | - | 388 W/m² | - |
| 1777920427 | 27.22° C | 62% | 1013.3 hPa | 0 mm | - | 606 W/m² | - |
| 1777920123 | 27.22° C | 61% | 1013.3 hPa | 0 mm | - | 641 W/m² | - |
| 1777919819 | 26.67° C | 63% | 1013.4 hPa | 0 mm | - | 681 W/m² | - |
* Rain latest hour (hover to see other rain measurements)
** Current wind speed in m/s (hover to see current wind gust speed)